Location: Hohenfelde
(53.8441°N, 9.6220°E)
Time: 11:06:02
(UTC+00:00)

Cosmos 1666 Rocket - Pass Details

Date: 14 July 2020
Orbit: 603 x 633 km, 82.5° (Epoch: 12 August)

Event Time Altitude Azimuth Distance (km) Brightness Sun altitude
Exits shadow 00:23:50 18° 221° (SW) 1,510 5.0 -13.5°
Maximum altitude 00:26:47 45° 287° (WNW) 840 4.2 -13.4°
Drops below altitude 10° 00:31:00 10° 1° (N) 1,977 7.5 -13.3°
Sets 00:33:18 0° 8° (N) 2,883 8.9 -13.2°
